[Date Prev][Date Next][Thread Prev][Thread Next] - [Date Index][Thread Index][Author Index]

2 Line ISS Keps 10-23



ISS
1 25544U 98067A   01296.42704861  .00095673  00000-0  12443-2 0  6397
2 25544  51.6382 163.6876 0008011 236.1274 131.5185 15.57956133167091


----
Via the sarex mailing list at AMSAT.ORG courtesy of AMSAT-NA.
To unsubscribe, send "unsubscribe sarex" to Majordomo@amsat.org



AMSAT Top AMSAT Home